Location: Kunchanapalle
(16.4623°N, 80.6176°E)
Time: 17:18:01
(UTC+00:00)

HJ-1C - Pass Details

Date: 13 August 2020
Orbit: 431 x 446 km, 97.1° (Epoch: 18 September)

Event Time Altitude Azimuth Distance (km) Brightness Sun altitude
Exits shadow 13:34:06 - 149° (SSE) 2,089 6.3 -7.9°
Reaches altitude 10° 13:35:25 10° 142° (SE) 1,562 5.6 -8.2°
Maximum altitude 13:38:27 32° 78° (ENE) 781 4.2 -8.9°
Drops below altitude 10° 13:41:29 10° 13° (NNE) 1,561 6.2 -9.6°
Sets 13:43:37 0° 3° (N) 2,429 7.3 -10.1°
